This demonstration page uses our WeatherBlox Daily Observations layout. Learn more.

Left ArrowRight Arrow

Hourly Observations for September 10, 2018

Temp ( °F °C ) Dew Point ( °F °C ) Humidity (%) Winds ( mph kmh ) Pressure ( in mb ) Visibility ( mi km ) Precip ( " mm )
12:53 am 00:53 Clear 68 20 63 17.2 84 84 SE 9 15 29.90 1012 10 16 0.00 0.00
1:53 am 01:53 Clear 68 20 62 16.7 81 81 ESE 8 13 29.89 1012 10 16 0.00 0.00
2:53 am 02:53 Clear 66 18.9 62 16.7 87 87 ESE 8 13 29.89 1012 10 16 0.00 0.00
3:53 am 03:53 Mostly Cloudy 66 18.9 62 16.7 87 87 SE 7 11 29.88 1012 10 16 0.00 0.00
4:53 am 04:53 Cloudy 67 19.4 63 17.2 87 87 ENE 5 7 29.90 1013 10 16 0.00 0.00
5:53 am 05:53 Clear 66 18.9 63 17.2 90 90 SE 7 11 29.87 1012 10 16 0.00 0.00
6:53 am 06:53 Clear 65 18.3 62 16.7 90 90 SSE 8 13 29.85 1011 10 16 0.00 0.00
7:53 am 07:53 Sunny 64 17.8 62 16.7 93 93 N 5 7 29.92 1013 10 16 0.00 0.00
8:53 am 08:53 Sunny 68 20 62 16.7 81 81 SE 6 9 29.93 1014 10 16 0.00 0.00
9:53 am 09:53 Sunny 71 21.7 62 16.7 73 73 SSE 5 7 29.93 1014 10 16 0.00 0.00
10:53 am 10:53 Sunny 74 23.3 63 17.2 69 69 ESE 6 9 29.94 1014 10 16 0.00 0.00
11:53 am 11:53 Sunny 76 24.4 61 16.1 60 60 SE 6 9 29.94 1014 10 16 0.00 0.00
12:53 pm 12:53 Sunny 79 26.1 61 16.1 54 54 undefined N/A 29.93 1014 10 16 0.00 0.00
1:53 pm 13:53 Sunny 81 27.2 61 16.1 51 51 ESE 5 7 29.90 1013 10 16 0.00 0.00
2:53 pm 14:53 Mostly Sunny 83 28.3 60 15.6 46 46 S 7 11 29.88 1012 10 16 0.00 0.00
3:53 pm 15:53 Mostly Cloudy 85 29.4 60 15.6 43 43 ESE 13 20 29.85 1011 10 16 0.00 0.00
4:53 pm 16:53 Mostly Cloudy 85 29.4 59 15 42 42 ESE 10 17 29.83 1010 10 16 0.00 0.00
5:53 pm 17:53 Mostly Sunny 85 29.4 59 15 42 42 SE 8 13 29.82 1010 10 16 0.00 0.00
6:53 pm 18:53 Partly Cloudy 84 28.9 59 15 43 43 ESE 9 15 29.83 1010 10 16 0.00 0.00
7:53 pm 19:53 Sunny 80 26.7 60 15.6 51 51 ESE 8 13 29.85 1011 10 16 0.00 0.00
8:53 pm 20:53 Clear 77 25 61 16.1 58 58 SE 7 11 29.85 1011 10 16 0.00 0.00
9:53 pm 21:53 Clear 74 23.3 62 16.7 67 67 ESE 7 11 29.87 1012 10 16 0.00 0.00
10:53 pm 22:53 Clear 74 23.3 61 16.1 64 64 ESE 9 15 29.88 1012 10 16 0.00 0.00
11:53 pm 23:53 Clear 72 22.2 62 16.7 71 71 ESE 8 13 29.90 1012 10 16 0.00 0.00

Powered by AerisWeather